Other Public Products
Issued by NWS Grand Forks, ND

Home | Current Version | Previous Version | Graphics & Text | Print | Product List | Glossary On
Versions: 1 2 3 4 5 6 7 8 9 10 11 12 13 14 15 16 17 18 19 20 21 22 23 24 25 26 27 28 29 30 31 32 33 34 35 36 37 38 39 40 41 42 43 44 45 46 47 48 49 50
000
FPUS83 KFGF 260610
OPUFGF
PRAIRIE TO PINES WEATHER ROUNDUP
NATIONAL WEATHER SERVICE EASTERN NORTH DAKOTA/GRAND FORKS ND
100 AM CDT SAT JUL 26 2014

 **SATELLITE DATA USED TO AUGMENT SKY COVER AT AUTOMATED STATIONS**
 *****  WEATHER ACROSS EASTERN NORTH DAKOTA  *****

CITY           SKY/WX    TMP DP  RH WIND       PRES   REMARKS
GRAND FORKS    CLEAR     58  55  90 SW5       29.77S
6HR MIN TEMP:  58; 6HR MAX TEMP:  79;

GRAND FORKS AF CLEAR     59  58  99 SW6       29.79S
GRAND CITY NWS   N/A     61 N/A N/A W3          N/A
BUXTON         NOT AVBL
DEVILS LAKE    CLEAR     64  55  72 S10       29.79S
6HR MIN TEMP:  63; 6HR MAX TEMP:  75;

FARGO          CLEAR     61  56  83 SW6       29.80F
6HR MIN TEMP:  61; 6HR MAX TEMP:  81;

WAHPETON ARPT  CLEAR     59  54  82 CALM      29.82F
$$

 *****  WEATHER ACROSS CENTRAL AND WESTERN NORTH DAKOTA  *****

CITY           SKY/WX    TMP DP  RH WIND       PRES   REMARKS
JAMESTOWN      CLEAR     61  56  83 S8        29.82S
6HR MIN TEMP:  60; 6HR MAX TEMP:  78;

BISMARCK       CLEAR     61  53  75 SE6       29.81S
6HR MIN TEMP:  59; 6HR MAX TEMP:  82;

MINOT          CLEAR     62  56  80 SE3       29.75F
6HR MIN TEMP:  61; 6HR MAX TEMP:  78;

MINOT AFB      CLEAR     61  60  96 S6        29.75S
6HR MIN TEMP:  61; 6HR MAX TEMP:  79;

GARRISON         N/A     60  57  89 SE5       29.79S
6HR MIN TEMP:  59; 6HR MAX TEMP:  77;

WILLISTON      CLEAR     59  50  72 CALM      29.85R
6HR MIN TEMP:  59; 6HR MAX TEMP:  84;

DICKINSON      CLEAR     58  51  78 SW8       29.85R
6HR MIN TEMP:  58; 6HR MAX TEMP:  82;

HETTINGER      CLEAR     62  48  60 CALM      29.87S
6HR MIN TEMP:  60; 6HR MAX TEMP:  81;

$$

 *****  OTHER OBSERVATIONS NORTHEAST NORTH DAKOTA  *****

CITY           SKY/WX    TMP DP  RH WIND       PRES   REMARKS
WALHALLA         N/A     59  57  94 SW3         N/A
LANGDON        FAIR      55  54  94 S9        29.78S
CAVALIER       FAIR      63  55  77 SW8       29.76S
GRAFTON        FAIR      59  55  88 SW5       29.76S
CANDO          FAIR      63  59  88 S12       29.79S
FORT TOTTEN    NOT AVBL
ROLLA          FAIR      57  57 100 SW9       29.79S
RUGBY          FAIR      63  55  77 S8        29.78S
 ***** THE ABOVE OBSERVATIONS ARE NON NWS ARE NOT QUALITY
        CONTROLLED AND MAY MIS-REPORT RAIN FOR SNOW...
$$

 *****  OTHER OBSERVATIONS SOUTHEAST NORTH DAKOTA *****

CITY           SKY/WX    TMP DP  RH WIND       PRES   REMARKS
COOPERSTOWN    NOT AVBL
VALLEY CITY    FAIR      59  59 100 S5        29.83S
OAKES          NOT AVBL
GWINNER        CLEAR     63  63 100 S3        29.84S
BUFFALO        NOT AVBL
WYNDMERE       NOT AVBL
 ***** THE ABOVE OBSERVATIONS ARE NON NWS ARE NOT QUALITY
       CONTROLLED AND MAY MIS-REPORT RAIN FOR SNOW...
$$

  *****  WEATHER ACROSS NORTHERN MINNESOTA  *****

CITY           SKY/WX    TMP DP  RH WIND       PRES   REMARKS
FLAG ISLAND    CLEAR     66  55  68 W9        29.71S
WARROAD        CLEAR     61  57  88 SW8       29.75S
ROSEAU         CLEAR     61  55  82 SW7       29.75S
HALLOCK        CLEAR     63  57  82 SW6       29.75R
THF RVR FALLS  CLEAR     59  55  88 SW6       29.79R
6HR MIN TEMP:  59; 6HR MAX TEMP:  77;

HALSTAD          N/A     58  55  92 SW5         N/A
FOSSTON        CLEAR     55  52  88 S3        29.81S
BAUDETTE       CLEAR     60  55  83 SW5       29.75F
6HR MIN TEMP:  60; 6HR MAX TEMP:  77; 6HR PCP:  0.01;

WASKISH        CLEAR     70  61  73 W9        29.77S
CROOKSTON      CLEAR     59  55  88 SW6       29.79S
$$
  *****  WEATHER ACROSS CENTRAL AND WEST MINNESOTA  *****

CITY           SKY/WX    TMP DP  RH WIND       PRES   REMARKS
BEMIDJI        CLEAR     60  56  85 CALM      29.80F
PARK RAPIDS    CLEAR     61  58  90 W3        29.82F
6HR MIN TEMP:  61; 6HR MAX TEMP:  77;

WADENA         CLEAR     63  57  82 W3        29.84S
DETROIT LAKES  CLEAR     63  57  82 CALM      29.84S
MOORHEAD       CLEAR     64  59  82 CALM      29.81F
FERGUS FALLS   CLEAR     66  54  63 E3        29.83S
ELBOW LAKE     FAIR      67  63  85 CALM      29.84S
MORRIS MN        N/A     66  66 100 CALM      29.83F FOG
STAPLES        CLEAR     64  63  94 W6        29.83S
WHEATON        NOT AVBL
$$
  *****  WEATHER ELSEWHERE ACROSS MINNESOTA  *****

CITY           SKY/WX    TMP DP  RH WIND       PRES   REMARKS
DULUTH         CLOUDY    70  66  87 SW9       29.79S
6HR MIN TEMP:  68; 6HR MAX TEMP:  70;

INTRNTL FALLS  CLEAR     65  63  93 W6        29.73R
6HR MIN TEMP:  65; 6HR MAX TEMP:  74; 6HR PCP:  0.06;

ELY            CLOUDY    66  64  94 SW7       29.75F
CLOQUET        CLOUDY    70  66  88 SW7       29.79F
BRAINERD       PTCLDY    69  67  93 W6        29.82R
6HR MIN TEMP:  66; 6HR MAX TEMP:  73;

HIBBING        FOG       63  61  93 CALM      29.77F VSB 1/2
6HR MIN TEMP:  64; 6HR MAX TEMP:  74;

ALEXANDRIA     PTCLDY    70  67  90 NW8       29.86S
6HR MIN TEMP:  68; 6HR MAX TEMP:  75;

SAINT CLOUD    CLEAR     71  68  90 NW3       29.81S FOG
6HR MIN TEMP:  71; 6HR MAX TEMP:  80;

MINNEAPOLIS    MOCLDY    75  69  81 S5        29.80S
6HR MIN TEMP:  75; 6HR MAX TEMP:  80;

$$

  *****  WEATHER ACROSS SOUTH DAKOTA  *****

CITY           SKY/WX    TMP DP  RH WIND       PRES   REMARKS
SIOUX FALLS    PTCLDY    71  69  93 NW5       29.86R
6HR MIN TEMP:  71; 6HR MAX TEMP:  86; 6HR PCP: TRACE;

BROOKINGS      NOT AVBL
WATERTOWN      CLEAR     66  65  96 CALM      29.89R FOG
6HR MIN TEMP:  63; 6HR MAX TEMP:  75;

HURON          PTCLDY    67  65  93 CALM      29.86S
6HR MIN TEMP:  64; 6HR MAX TEMP:  79;

SISSETON         N/A     61  60  97 CALM      29.83F
ABERDEEN       CLEAR     56  55  97 CALM      29.85S
6HR MIN TEMP:  55; 6HR MAX TEMP:  79;

MITCHELL       PTCLDY    69  67  93 N7        29.87R
PIERRE         TSTM      72  69  90 NE8       29.83R FOG
6HR MIN TEMP:  70; 6HR MAX TEMP:  87; 6HR PCP:  0.06;

MOBRIDGE       CLEAR     63  57  81 E8        29.81F
RAPID CITY     CLEAR     64  53  67 N12       29.88R
6HR MIN TEMP:  62; 6HR MAX TEMP:  79;

$$

  *****  SOME WEATHER IN NEARBY STATES *****

CITY           SKY/WX    TMP DP  RH WIND       PRES   REMARKS
GLASGOW MT     CLEAR     61  48  62 W16       29.89S
6HR MIN TEMP:  60; 6HR MAX TEMP:  84;

GREAT FALLS MT CLEAR     57  37  47 W10       30.04R
6HR MIN TEMP:  57; 6HR MAX TEMP:  80;

CHEYENNE WY    PTCLDY    65  55  70 SW12      30.13R
6HR MIN TEMP:  65; 6HR MAX TEMP:  81; 6HR PCP: TRACE;

SCOTTSBLUFF NE MOCLDY    69  59  70 E9        29.93S
6HR MIN TEMP:  68; 6HR MAX TEMP:  81; 6HR PCP:  0.06;

OMAHA NE       MOCLDY    77  71  82 NE5       29.80R
6HR MIN TEMP:  77; 6HR MAX TEMP:  91;

DES MOINES IA  PTCLDY    74  70  87 NE6       29.79S
6HR MIN TEMP:  74; 6HR MAX TEMP:  82;

DAVENPORT IA   MOCLDY    68  61  78 SE14      29.86F
6HR MIN TEMP:  68; 6HR MAX TEMP:  72;

CHICAGO IL     CLOUDY    70  56  61 SW10      29.91F
6HR MIN TEMP:  69; 6HR MAX TEMP:  72;

EAU CLAIRE WI  CLOUDY    70  67  90 S9        29.82F
6HR MIN TEMP:  70; 6HR MAX TEMP:  75; 6HR PCP:  0.01;

LA CROSSE WI   LGT RAIN  69  66  90 SE9       29.86S FOG
6HR MIN TEMP:  69; 6HR MAX TEMP:  76; 6HR PCP: TRACE;

$$

  *****  SOME NATIONAL WEATHER *****

CITY           SKY/WX    TMP DP  RH WIND       PRES   REMARKS
LA GUARDIA NY  MOCLDY    72  60  66 SW9       29.99S
6HR MIN TEMP:  72; 6HR MAX TEMP:  79;



USA.gov is the U.S. government's official web portal to all federal, state and local government web resources and services.